Hors Challenge

Les Boucles Ardennaises - La Roche-En-Ardenne (10.80 km)

samedi 05 juin 2021

Le Classement original se trouve sur : http://www.chronorace.be
 
LES BOUCLES ARDENNAISES - LA ROCHE-EN-ARDENNE
DISTANCE : 10.80 km
samedi 05 juin 2021
 
Place Dos NOM Catégorie Pl/cat temps temps/km Vitesse
1 618 LÉONARD GILLES SH 1 00:51:08 04:44 12.67
2 604 JANSSEN KRISTOF SH 2 00:52:01 04:49 12.45
3 1850 ALBERTUCCIO ALIX SH 3 00:52:48 04:53 12.27
4 728 VOETS JEAN-CHRISTOPHE SH 4 00:59:26 05:30 10.90
5 568 DESADELEER JEAN-FRANCOIS V1 1 01:00:32 05:36 10.70
6 595 HAEKEN FRANCIS V1 2 01:00:33 05:36 10.70
7 505 DELLEUR DAN SH 5 01:01:19 05:41 10.57
8 733 DENIS MAXIME SH 6 01:02:34 05:48 10.35
9 627 OLIVEIRA NICOLAS V1 3 01:04:37 05:59 10.03
10 623 LOURTIE HENRY SH 7 01:04:41 05:59 10.02
11 539 CEINOS MANON SD 1 01:04:45 06:00 10.01
12 585 GEUDVERT COLINE SD 2 01:04:45 06:00 10.01
13 594 HABAY CAROLINE SD 3 01:06:56 06:12 9.68
14 601 HOLSTERS JOËL SH 8 01:07:22 06:14 9.62
15 566 DEMETSENAERE JORIS SH 9 01:07:22 06:14 9.62
16 643 RAMAEKERS MAARTEN SH 10 01:07:39 06:16 9.58
17 649 SIMON QUENTIN SH 11 01:08:36 06:21 9.44
18 87 COULON NICOLAS SH 12 01:08:40 06:22 9.43
19 533 BRAHAM MEHDI V1 4 01:08:40 06:22 9.43
20 536 BRUYNINCKX HANNELORE SD 4 01:08:46 06:22 9.42
21 606 LAPORTE GILLES SH 13 01:08:59 06:23 9.39
22 593 DE WOUTERS JEAN-NICOLAS xxx   01:09:03 06:24 9.38
23 558 DE WOUTERS CLÉMENCE SD 5 01:09:03 06:24 9.38
24 706 SOVET MURIEL A1 1 01:10:33 06:32 9.18
25 574 DUTERME ISABELLE A1 2 01:11:14 06:36 9.09
26 713 VAN ALSENOY IVAN V2 1 01:11:21 06:36 9.08
27 729 VOLVERT THIERRY V2 2 01:12:16 06:42 8.96
28 508 DUBOIS ANGÈLE SD 6 01:12:34 06:43 8.93
29 525 BASTOGNE NICOLAS JH 1 01:13:54 06:51 8.77
30 639 PIERARD VALENTIN JH 2 01:13:55 06:51 8.76
31 535 BRONSART AUDREY SD 7 01:17:22 07:10 8.37
32 734 DEMELENNE ANTOINE SH 14 01:17:31 07:11 8.36
33 502 CAMBRON JULIE JULIE SD 8 01:17:32 07:11 8.36
34 735 GILSON SEBASTIEN SH 15 01:17:32 07:11 8.36
35 507 DUBOIS MANON SD 9 01:18:02 07:14 8.30
36 629 MARTHOZ CHRISTELLE A2 1 01:18:44 07:18 8.23
37 727 VERVLOESSEM MYRIAM A3 1 01:19:05 07:19 8.19
38 630 RATZ ANITA xxx   01:19:18 07:21 8.17
39 511 LARUE PATRICK V3 1 01:19:19 07:21 8.17
40 506 DUBOIS FANY SD 10 01:19:28 07:22 8.15
41 603 HUBERT ISABELLE A1 3 01:20:21 07:26 8.06
42 530 BOURGEOIS VINCIANE A1 4 01:20:23 07:27 8.06
43 619 LEPROPRE ANNE A2 2 01:21:05 07:31 7.99
44 550 DAVISTER ROMAIN SH 16 01:21:10 07:31 7.98
45 600 HENRY RENAUD SH 17 01:21:34 07:33 7.94
46 546 COSTERS SILVIE A1 5 01:21:37 07:34 7.94
47 531 BOURGUET ERIC V3 2 01:22:12 07:37 7.88
48 510 WINKIN THOMAS SD 11 01:22:46 07:40 7.83
49 622 LOUIS JOHANNA SD 12 01:24:10 07:48 7.70
50 598 HENKINET RÉMY SH 18 01:24:13 07:48 7.69
51 640 POHL ALESSANDRA SD 13 01:24:37 07:50 7.66
52 575 ELOY MAXENCE SH 19 01:24:42 07:51 7.65
53 590 GILARD VÉRONIQUE SD 14 01:25:55 07:57 7.54
54 518 BACHÉRIUS VALÉRIE SD 15 01:25:55 07:57 7.54
55 544 COLLIN NATACHA SD 16 01:26:38 08:01 7.48
56 712 VAN ALSENOY ALINE SD 17 01:28:58 08:14 7.28
57 714 VAN ALSENOY MARGOT SD 18 01:28:58 08:14 7.28
58 509 HOTTON JULIE SD 19 01:29:47 08:19 7.22
59 537 BUSSCHER TAMARA A1 6 01:29:52 08:19 7.21
60 592 GOTELAERE SEPPE JH 3 01:29:52 08:19 7.21
61 721 VANCOMPERNOLLE KOEN V2 3 01:30:40 08:24 7.15
62 529 BOUDET AURIANE SD 20 01:31:51 08:30 7.05
63 597 HEIRWEGH SASKIA A1 7 01:32:52 08:36 6.98
64 527 BERAUD SYLVIE A3 2 01:37:13 09:00 6.66
65 613 LEGRAIN CHRISTINE A1 8 01:40:44 09:20 6.43
66 555 DE VILLE SABRINA A1 9 01:40:44 09:20 6.43
67 635 NICAISE FRANK SH 20 01:43:39 09:36 6.25
68 610 LECHIEN AURÉLIE SD 21 01:43:40 09:36 6.25
69 570 DEWAELE KYANA SD 22 01:58:39 10:59 5.46
70 534 BRASSAERT ANDRÉ V4 1 01:58:41 10:59 5.46
71 501 PAQUET SABINE SABINE A1 10 02:44:14 15:13 3.94
               
Nos dernières videos
-->